FW7576 Weather Reports


time (UTC)temp
F
wind
direction
speed
knots
gust
knots
rain 1hr
in
rain 24hr
in
rain mn
in
humidity
%
barometer
mb
20260503220045 67 257 6.1 17.4 0.00 0.00 0.00 43 1004.7
20260503214535 66 240 8.7 20.9 0.00 0.00 0.00 43 1004.9
20260503213035 66 246 9.6 19.1 0.00 0.00 0.00 42 1005.1
20260503211541 66 240 11.3 20.9 0.00 0.00 0.00 42 1005.0
20260503210039 65 241 10.4 19.1 0.00 0.00 0.00 44 1005.2
20260503204539 65 229 8.7 18.2 0.00 0.00 0.00 48 1005.6
20260503203052 63 212 10.4 20.0 0.00 0.00 0.00 50 1006.0
20260503201538 64 218 9.6 20.9 0.00 0.00 0.00 48 1006.2
20260503200035 63 238 10.4 23.5 0.00 0.00 0.00 47 1006.7
20260503194541 64 203 10.4 21.7 0.00 0.00 0.00 45 1006.5
20260503193038 64 214 13.9 23.5 0.00 0.00 0.00 42 1006.6
20260503191545 64 235 8.7 26.1 0.00 0.00 0.00 42 1006.7
20260503190043 64 260 10.4 20.0 0.00 0.00 0.00 41 1007.0
20260503184536 63 277 14.8 24.3 0.00 0.00 0.00 43 1007.0
20260503183036 62 217 10.4 20.0 0.00 0.00 0.00 46 1007.3
20260503181546 61 242 11.3 21.7 0.00 0.00 0.00 50 1007.6
20260503180039 60 234 9.6 14.8 0.00 0.00 0.00 53 1007.9
20260503174539 59 184 9.6 18.2 0.00 0.00 0.00 54 1008.0
20260503173037 58 257 7.8 21.7 0.00 0.00 0.00 55 1008.5
20260503171536 56 204 7.8 16.5 0.00 0.00 0.00 59 1008.8
20260503081541 48 225 5.2 9.6 0.00 0.00 0.00 51 1012.6
20260503080158 48 269 3.5 7.0 0.00 0.00 0.00 52 1012.6
20260503071536 47 248 4.3 7.8 0.00 0.00 0.00 53 1012.8
20260503060106 44 233 0.9 4.3 0.00 0.00 0.00 61 1013.4
20260503054553 44 220 1.7 5.2 0.00 0.00 0.00 61 1013.5
20260503053038 44 226 1.7 3.5 0.00 0.00 0.00 63 1013.6
20260503051539 43 228 1.7 3.5 0.00 0.00 0.00 65 1013.7
20260503050038 42 220 1.7 2.6 0.00 0.00 0.00 68 1013.8
20260503044536 42 222 0.9 2.6 0.00 0.00 0.00 70 1013.8
20260503043037 42 214 0.9 3.5 0.00 0.00 0.00 71 1013.9
20260503041535 42 223 0.9 2.6 0.00 0.00 0.00 71 1014.0
20260503040041 42 229 0.9 3.5 0.00 0.00 0.00 72 1014.1
20260503034539 42 228 1.7 3.5 0.00 0.00 0.00 72 1014.2
20260503033037 42 213 0.9 2.6 0.00 0.00 0.00 72 1014.3
20260503031539 42 216 1.7 2.6 0.00 0.00 0.00 72 1014.5
20260503030042 43 214 1.7 4.3 0.00 0.00 0.00 72 1014.6
20260503024540 43 211 0.9 4.3 0.00 0.00 0.00 71 1014.6
20260503023039 43 201 1.7 6.1 0.00 0.00 0.00 70 1014.7
20260503021541 43 212 1.7 3.5 0.00 0.00 0.00 69 1014.7
20260503020037 43 193 1.7 6.1 0.00 0.00 0.00 68 1014.6
20260503014535 44 219 2.6 5.2 0.00 0.00 0.00 67 1014.5
20260503013035 44 164 1.7 3.5 0.00 0.00 0.00 65 1014.6
20260503011539 45 167 0.9 2.6 0.00 0.00 0.00 63 1014.5
20260503010039 45 213 0.9 3.5 0.00 0.00 0.00 62 1014.5
20260503004537 46 233 0.9 3.5 0.00 0.00 0.00 59 1014.5
20260503003037 48 156 2.6 5.2 0.00 0.00 0.00 56 1014.6
20260503001536 49 156 1.7 5.2 0.00 0.00 0.00 54 1014.8
20260503000035 49 219 3.5 6.1 0.00 0.00 0.00 53 1014.6
20260502234549 49 162 0.9 6.1 0.00 0.00 0.00 52 1014.9
20260502233039 50 158 4.3 7.8 0.00 0.00 0.00 50 1015.2
20260502231538 50 152 3.5 8.7 0.00 0.00 0.00 49 1015.3
20260502230036 50 200 3.5 10.4 0.00 0.00 0.00 49 1015.4
20260502224535 51 203 5.2 9.6 0.00 0.00 0.00 49 1015.5
20260502223040 51 115 2.6 7.0 0.00 0.00 0.00 49 1015.6
20260502221541 50 129 3.5 9.6 0.00 0.00 0.00 49 1015.7